KUIPER-00204

导读

KUIPER-00204是美国亚马逊柯伊伯(Project Kuiper)低轨宽带星座的卫星,于2025年12月15日发射升空。该星座计划部署超3200颗低轨卫星,旨在为全球包括未覆盖和服务不足地区提供高速稳定的宽带互联网接入服务。这颗卫星加入星座网络后,将进一步推进全球卫星互联网组网进程,拓展太空互联网覆盖范围。

Basic Information
目录编号:
67145
目录名称:
KUIPER-00204
国际标识:
2025-301N
轨道中心:
EARTH
卫星名称:
KUIPER-00204
卫星全名:
KUIPER-00204
卫星状态:
在轨 (已飞行264 天)
发射日期:
2025-12-15 UTC
国别 :
美国 (US)
星等 :
--
Orbit Information
数据来源 国际轨道数据 AOE轨道数据
星历时间 2026-09-05T20:18:01+0800
5小时前
查看轨道信息
2026-09-04T08:00:00+0800
1天前
查看轨道信息
半长轴 7007.681km 7007.665km
偏心率 0.0000313 0.0000287
轨道倾角 51.903° 51.902°
近地点辐角 94.724° 66.156°
升交点赤经 330.464° 337.151°
平近点角 265.376° 150.803°
近地点 629.324km 629.326km
远地点 629.764km 629.73km
周期 97.302分钟 97.302分钟
每日圈数 14.799305 14.799355
Detailed Information
使用方式:
暂无
2D Orbit Map
3D Orbit Map
Orbit Altitude Analysis Chart
Orbit Inclination Analysis Chart
Orbit Comprehensive Analysis Chart
View Comprehensive Chart
Conjunction Data List
Event ID Objects TCA Miss Dist (km) Collision Risk Probability Collision Risk Index (CRI) Action
CDM_260906-010504-005506-714522
CANX-4 (40055)
2026-09-06T
01:05:48+0000
1.239 km
极远距离
1.26149E-5 中风险 0.57